Location: Bronnegerveen
(52.9548°N, 6.8388°E)
Time: 01:24:10
(UTC+00:00)

IDEFIX/ARIANE 42P - Pass Details

Date: 15 June 2025
Orbit: 781 x 797 km, 98.6° (Epoch: 06 July)

Event Time Altitude Azimuth Distance (km) Brightness Sun altitude
Rises 01:09:36 0° 17° (NNE) 3,315 8.0 -10.9°
Reaches altitude 10° 01:11:58 10° 20° (NNE) 2,379 6.7 -10.8°
Maximum altitude 01:17:12 65° 103° (ESE) 876 2.9 -10.4°
Enters shadow 01:22:10 11° 184° (S) 2,277 4.4 -10.1°
